Location: Bakhuizen
(52.8696°N, 5.4575°E)
Time: 20:40:18
(UTC+00:00)

Cosmos 1937 Rocket - Pass Details

Date: 11 May 2021
Orbit: 745 x 781 km, 74.0° (Epoch: 21 June)

Event Time Altitude Azimuth Distance (km) Brightness Sun altitude
Exits shadow 22:09:36 29° 165° (SSE) 1,364 4.2 -16.7°
Maximum altitude 22:11:55 49° 107° (ESE) 966 3.8 -16.8°
Drops below altitude 10° 22:16:53 10° 34° (NE) 2,291 6.5 -17.0°
Sets 22:19:20 0° 29° (NNE) 3,226 7.4 -17.2°
